Overview Statistics Trail Chart Weather Telemetry Raw packets
 

This is the latest recevied weather packets stored in our database for station/object AA7VG. If no packets are shown the sender has not sent any weather packets the latest 10 day(s).

<< 96 97 98 99 100 101 102 >>
Time Temp. Humidity Pressure Rain* Wind** Luminosity Snow
1787896214 16.67° C 70% 1015.6 hPa 0 mm - - -
1787895909 16.67° C 71% 1015.3 hPa 0 mm - - -
1787895609 16.67° C 72% 1015.2 hPa 0 mm - - -
1787895305 16.67° C 75% 1015.2 hPa 0 mm - - -
1787895000 16.67° C 74% 1015.2 hPa 0 mm - - -
1787894695 16.67° C 74% 1015.2 hPa 0 mm - - -
1787894395 16.11° C 73% 1015.3 hPa 0 mm - - -
1787894090 16.67° C 73% 1015 hPa 0 mm - - -
1787893787 16.67° C 72% 1014.8 hPa 0 mm - - -
1787893482 17.78° C 69% 1015.1 hPa 0 mm - - -
1787893177 18.33° C 60% 1015.2 hPa 0 mm - - -
1787892874 18.33° C 59% 1015 hPa 0 mm - - -
1787892570 19.44° C 57% 1015.2 hPa 0 mm - - -
1787892266 19.44° C 54% 1015 hPa 0 mm - - -
1787891961 19.44° C 55% 1015 hPa 0 mm - - -
1787891657 19.44° C 56% 1014.8 hPa 0 mm - - -
1787891353 19.44° C 56% 1015.5 hPa 0 mm - - -
1787891052 19.44° C 57% 1015.2 hPa 0 mm - - -
1787890751 19.44° C 57% 1015.3 hPa 0 mm - - -
1787890446 19.44° C 57% 1015.4 hPa 0 mm - - -
1787890142 18.33° C 60% 1015.3 hPa 0 mm - - -
1787889841 18.33° C 62% 1015.3 hPa 0 mm - - -
1787889537 17.78° C 65% 1015 hPa 0 mm - - -
1787889236 17.78° C 67% 1015 hPa 0 mm - - -
1787888931 17.78° C 67% 1015.1 hPa 0 mm - - -

* Rain latest hour (hover to see other rain measurements)
** Current wind speed in m/s (hover to see current wind gust speed)